BULGARIASAT-1

Last updated on Thu Jul 03 2025 00:02:47 GMT+0000 (Coordinated Universal Time)

1 42801U 17038A 25183.35392052 .00000019 00000+0 00000+0 0 9990 2 42801 0.0439 85.2958 0002937 23.3253 301.3345 1.00276477 29328
UTC large
Height (km)
Speed (km/s)
/
Latitude / Longitude
Inclination (degrees)
Orbital Period (minutes)
Azimuth
Elevation
Range (km)
Doppler Factor

Next 0 passes for location: London (51.5072 / 0.1276)

Sorry there are no passes over London.